TimeEDT,TemperatureF,Dew PointF,Humidity,Sea Level PressureIn,VisibilityMPH,Wind Direction,Wind SpeedMPH,Gust SpeedMPH,PrecipitationIn,Events,Conditions,WindDirDegrees,DateUTC
12:15 AM,67.3,65.5,94,30.00,10.0,SSE,3.5,-,N/A,,Clear,150,2013-05-30 04:15:00
12:35 AM,66.7,64.9,94,30.00,7.0,Calm,Calm,-,N/A,,Clear,0,2013-05-30 04:35:00
12:55 AM,70.5,66.2,86,30.00,10.0,South,4.6,-,N/A,,Clear,190,2013-05-30 04:55:00
1:14 AM,70.7,64.8,81,30.01,10.0,Calm,Calm,-,N/A,,Clear,0,2013-05-30 05:14:00
1:35 AM,70.2,64.4,82,30.01,10.0,SSW,3.5,-,N/A,,Clear,200,2013-05-30 05:35:00
1:55 AM,69.8,63.7,81,30.02,10.0,SSW,3.5,-,N/A,,Clear,200,2013-05-30 05:55:00
2:15 AM,69.8,63.3,80,30.02,10.0,SSW,3.5,-,N/A,,Clear,200,2013-05-30 06:15:00
2:35 AM,69.1,63.0,81,30.02,10.0,Calm,Calm,-,N/A,,Clear,0,2013-05-30 06:35:00
2:55 AM,68.9,62.6,80,30.03,10.0,Calm,Calm,-,N/A,,Clear,0,2013-05-30 06:55:00
3:15 AM,68.4,62.1,80,30.03,10.0,Calm,Calm,-,N/A,,Clear,0,2013-05-30 07:15:00
3:35 AM,68.9,62.1,79,30.03,10.0,South,4.6,-,N/A,,Clear,190,2013-05-30 07:35:00
3:54 AM,69.3,61.7,77,30.03,10.0,South,3.5,-,N/A,,Clear,190,2013-05-30 07:54:00
4:15 AM,68.0,61.5,80,30.03,10.0,South,4.6,-,N/A,,Clear,180,2013-05-30 08:15:00
4:35 AM,67.5,61.7,82,30.03,10.0,South,4.6,-,N/A,,Clear,190,2013-05-30 08:35:00
4:54 AM,68.9,61.7,78,30.02,10.0,SSW,4.6,-,N/A,,Clear,200,2013-05-30 08:54:00
5:15 AM,68.4,61.3,78,30.03,10.0,SSW,4.6,-,N/A,,Clear,200,2013-05-30 09:15:00
5:35 AM,68.5,61.3,78,30.03,10.0,SSW,4.6,-,N/A,,Clear,200,2013-05-30 09:35:00
5:55 AM,68.2,61.3,79,30.03,10.0,South,3.5,-,N/A,,Clear,190,2013-05-30 09:55:00
6:15 AM,68.0,61.7,80,30.03,10.0,South,4.6,-,N/A,,Clear,190,2013-05-30 10:15:00
6:35 AM,69.3,61.9,77,30.04,10.0,South,6.9,-,N/A,,Clear,190,2013-05-30 10:35:00
6:55 AM,69.8,62.1,76,30.05,10.0,SSW,4.6,-,N/A,,Clear,200,2013-05-30 10:55:00
7:15 AM,69.3,62.6,79,30.05,10.0,SSW,4.6,-,N/A,,Clear,200,2013-05-30 11:15:00
7:35 AM,69.8,62.6,78,30.05,10.0,SSW,5.8,-,N/A,,Clear,200,2013-05-30 11:35:00
7:55 AM,70.9,63.5,77,30.06,10.0,SSW,5.8,-,N/A,,Clear,200,2013-05-30 11:55:00
8:15 AM,72.9,64.4,75,30.06,10.0,SSW,6.9,-,N/A,,Clear,200,2013-05-30 12:15:00
8:35 AM,73.9,64.6,72,30.06,10.0,SSW,5.8,-,N/A,,Scattered Clouds,200,2013-05-30 12:35:00
8:55 AM,75.2,65.3,71,30.06,10.0,SSW,10.4,-,N/A,,Clear,200,2013-05-30 12:55:00
9:15 AM,76.6,64.9,67,30.06,10.0,SSW,6.9,-,N/A,,Mostly Cloudy,210,2013-05-30 13:15:00
9:35 AM,77.2,64.8,65,30.06,10.0,SSW,11.5,17.3,N/A,,Scattered Clouds,210,2013-05-30 13:35:00
9:55 AM,78.8,64.9,62,30.06,10.0,SSW,9.2,-,N/A,,Clear,200,2013-05-30 13:55:00
10:14 AM,79.5,65.1,61,30.06,10.0,SW,13.8,19.6,N/A,,Scattered Clouds,220,2013-05-30 14:14:00
10:35 AM,80.6,66.2,61,30.05,10.0,SSW,10.4,-,N/A,,Clear,210,2013-05-30 14:35:00
10:55 AM,81.3,66.7,61,30.05,10.0,SSW,12.7,17.3,N/A,,Clear,200,2013-05-30 14:55:00
11:14 AM,81.9,66.7,60,30.05,10.0,South,10.4,-,N/A,,Clear,190,2013-05-30 15:14:00
11:35 AM,82.4,66.9,59,30.04,10.0,South,10.4,-,N/A,,Scattered Clouds,190,2013-05-30 15:35:00
11:55 AM,82.9,67.6,60,30.04,10.0,SSW,10.4,18.4,N/A,,Scattered Clouds,200,2013-05-30 15:55:00
12:14 PM,83.3,68.4,61,30.04,10.0,SSW,10.4,-,N/A,,Scattered Clouds,210,2013-05-30 16:14:00
12:35 PM,83.7,67.8,59,30.04,10.0,SSW,12.7,19.6,N/A,,Mostly Cloudy,210,2013-05-30 16:35:00
12:55 PM,84.4,66.2,54,30.04,10.0,SW,12.7,20.7,N/A,,Scattered Clouds,220,2013-05-30 16:55:00
1:15 PM,84.4,66.4,55,30.03,10.0,SSW,10.4,18.4,N/A,,Scattered Clouds,210,2013-05-30 17:15:00
1:35 PM,76.3,69.4,79,30.04,3.0,South,10.4,21.9,N/A,Rain,Light Rain,170,2013-05-30 17:35:00
1:55 PM,75.6,68.5,79,30.03,10.0,SSE,6.9,-,N/A,,Scattered Clouds,160,2013-05-30 17:55:00
2:15 PM,77.9,70.2,77,30.02,10.0,SSE,6.9,-,N/A,,Clear,160,2013-05-30 18:15:00
2:35 PM,79.5,73.0,80,30.02,10.0,SSE,8.1,-,N/A,,Clear,150,2013-05-30 18:35:00
2:54 PM,82.0,72.7,73,30.00,10.0,SE,9.2,-,N/A,,Scattered Clouds,140,2013-05-30 18:54:00
3:15 PM,82.4,72.3,71,30.00,10.0,South,10.4,-,N/A,,Scattered Clouds,190,2013-05-30 19:15:00
3:35 PM,80.8,71.4,73,30.00,10.0,SSW,9.2,-,N/A,,Scattered Clouds,200,2013-05-30 19:35:00
3:54 PM,83.5,70.9,66,29.99,10.0,SSW,9.2,-,N/A,,Clear,210,2013-05-30 19:54:00
4:15 PM,85.3,68.9,58,30.00,10.0,SSW,12.7,17.3,N/A,,Clear,200,2013-05-30 20:15:00
4:35 PM,83.1,66.6,57,29.99,10.0,SSW,9.2,-,N/A,,Scattered Clouds,200,2013-05-30 20:35:00
4:54 PM,78.3,69.1,73,29.99,10.0,SW,5.8,-,N/A,Rain,Light Rain,220,2013-05-30 20:54:00
5:15 PM,81.5,70.7,70,29.98,10.0,South,5.8,-,N/A,,Scattered Clouds,170,2013-05-30 21:15:00
5:34 PM,83.5,70.2,64,29.97,10.0,South,5.8,-,N/A,,Clear,190,2013-05-30 21:34:00
5:55 PM,84.4,68.7,59,29.97,10.0,South,9.2,-,N/A,,Clear,180,2013-05-30 21:55:00
6:14 PM,84.9,67.8,56,29.97,10.0,SSW,9.2,-,N/A,,Clear,210,2013-05-30 22:14:00
6:35 PM,85.3,64.6,50,29.97,10.0,SSW,15.0,23.0,N/A,,Scattered Clouds,200,2013-05-30 22:35:00
6:54 PM,85.1,64.4,50,29.98,10.0,SSE,5.8,-,N/A,,Clear,160,2013-05-30 22:54:00
7:15 PM,82.6,68.5,62,29.98,10.0,SE,8.1,-,N/A,,Clear,130,2013-05-30 23:15:00
7:35 PM,79.7,68.0,67,29.98,10.0,SE,9.2,-,N/A,,Clear,140,2013-05-30 23:35:00
7:55 PM,79.2,68.2,69,29.98,10.0,SE,11.5,20.7,N/A,,Mostly Cloudy,140,2013-05-30 23:55:00
8:15 PM,74.5,69.1,83,29.98,10.0,ESE,5.8,-,N/A,Rain,Light Rain,120,2013-05-31 00:15:00
8:34 PM,73.8,69.3,86,29.99,10.0,ESE,5.8,-,N/A,,Scattered Clouds,110,2013-05-31 00:34:00
8:55 PM,72.7,69.1,88,29.98,10.0,SE,8.1,-,N/A,,Clear,140,2013-05-31 00:55:00
9:15 PM,72.5,69.4,90,29.99,10.0,SE,6.9,-,N/A,,Scattered Clouds,140,2013-05-31 01:15:00
9:34 PM,72.9,69.8,90,29.99,10.0,SSE,3.5,-,N/A,Rain,Light Rain,150,2013-05-31 01:34:00
9:55 PM,72.3,69.8,92,30.00,10.0,SE,3.5,-,N/A,,Clear,130,2013-05-31 01:55:00
10:15 PM,72.5,69.8,91,30.00,10.0,Calm,Calm,-,N/A,,Scattered Clouds,0,2013-05-31 02:15:00
10:34 PM,71.4,69.4,93,30.01,10.0,SSE,8.1,-,N/A,,Scattered Clouds,150,2013-05-31 02:34:00
10:55 PM,72.5,69.1,89,30.01,10.0,SSE,9.2,17.3,N/A,,Light Drizzle,160,2013-05-31 02:55:00
11:15 PM,74.3,67.5,79,30.01,10.0,South,10.4,-,N/A,,Clear,170,2013-05-31 03:15:00
11:35 PM,73.6,66.4,78,30.01,10.0,South,8.1,-,N/A,Rain,Light Rain,190,2013-05-31 03:35:00
11:55 PM,72.0,66.2,82,30.00,10.0,SSE,5.8,-,N/A,,Clear,160,2013-05-31 03:55:00